EW7099 Weather Reports


time (UTC)temp
C
wind
direction
speed
KPH
gust
KPH
rain 1hr
cm
rain 24hr
cm
rain mn
cm
humidity
%
barometer
mb
20260902133021 -17 0.0 0.0 0.00 0.00 0.00 1011.7
20260902131516 -17 0.0 0.0 0.00 0.00 0.00 1011.9
20260902130012 -17 0.0 0.0 0.00 0.00 0.00 1012.2
20260902124509 -17 0.0 0.0 0.00 0.00 0.00 1012.4
20260902123001 -17 0.0 0.0 0.00 0.00 0.00 1012.5
20260902121557 -17 0.0 0.0 0.00 0.00 0.00 1012.7
20260902120051 23 319 6.4 11.3 0.00 0.00 0.00 100 1012.7
20260902114550 25 313 8.0 12.9 0.00 0.00 0.00 89 1012.5
20260902113050 24 313 9.7 14.5 0.00 0.00 0.00 89 1012.3
20260902111543 24 321 9.7 12.9 0.00 0.00 0.00 89 1012.0
20260902110043 24 14 6.4 14.5 0.00 0.00 0.00 90 1011.9
20260902104604 24 9 6.4 12.9 0.00 0.00 0.00 91 1012.1
20260902103039 24 26 0.0 12.9 0.00 0.00 0.00 92 1012.1
20260902101539 24 91 12.9 24.1 0.00 0.00 0.00 92 1012.1
20260902100047 24 121 14.5 32.2 0.00 0.00 0.00 91 1011.7
20260902094534 25 110 17.7 54.7 0.00 0.00 0.00 84 1011.8
20260902093030 26 110 0.0 0.0 0.00 0.00 0.00 86 1010.7
20260902091527 26 314 0.0 0.0 0.00 0.00 0.00 86 1010.2
20260902090026 27 313 0.0 0.0 0.00 0.00 0.00 86 1010.4
20260902084524 27 330 0.0 0.0 0.00 0.00 0.00 86 1010.5
20260902083021 27 332 0.0 0.0 0.00 0.00 0.00 86 1010.6
20260902081520 27 309 0.0 0.0 0.00 0.00 0.00 86 1010.7
20260902080022 27 306 0.0 0.0 0.00 0.00 0.00 86 1011.1
20260902074519 27 305 0.0 0.0 0.00 0.00 0.00 86 1010.9
20260902073016 27 308 0.0 0.0 0.00 0.00 0.00 86 1010.7
20260902071526 27 308 0.0 0.0 0.00 0.00 0.00 86 1010.6
20260902070013 27 308 0.0 0.0 0.00 0.00 0.00 85 1010.7
20260902064514 27 304 0.0 8.0 0.00 0.00 0.00 85 1010.8
20260902063008 27 304 0.0 0.0 0.00 0.00 0.00 84 1010.9
20260902061507 27 313 0.0 0.0 0.00 0.00 0.00 84 1011.0
20260902060005 28 313 0.0 9.7 0.00 0.00 0.00 83 1011.0
20260902054503 28 321 0.0 0.0 0.00 0.00 0.00 83 1011.3
20260902053102 28 329 0.0 8.0 0.00 0.00 0.00 83 1011.8
20260902051609 28 349 0.0 0.0 0.00 0.00 0.00 83 1012.0
20260902050058 28 349 0.0 0.0 0.00 0.00 0.00 83 1012.2
20260902044556 28 349 0.0 0.0 0.00 0.00 0.00 82 1012.2
20260902043101 28 349 0.0 0.0 0.00 0.00 0.00 82 1012.0
20260902041548 28 349 0.0 6.4 0.00 0.00 0.00 82 1011.9
20260902040045 28 325 0.0 1.6 0.00 0.00 0.00 82 1011.8
20260902034543 28 286 0.0 0.0 0.00 0.00 0.00 82 1011.5
20260902033041 28 247 0.0 0.0 0.00 0.00 0.00 82 1011.4
20260902031542 28 245 0.0 0.0 0.00 0.00 0.00 82 1011.2
20260902030036 28 238 0.0 0.0 0.00 0.00 0.00 81 1010.9
20260902024532 29 263 0.0 0.0 0.00 0.00 0.00 81 1010.8
20260902023031 29 242 0.0 0.0 0.00 0.00 0.00 81 1010.8
20260902021540 29 240 0.0 0.0 0.00 0.00 0.00 80 1010.8
20260902020034 29 238 0.0 0.0 0.00 0.00 0.00 80 1010.8
20260902014543 29 236 0.0 0.0 0.00 0.00 0.00 79 1010.6
20260902013021 29 236 0.0 0.0 0.00 0.00 0.00 78 1010.0
20260902011515 29 228 0.0 0.0 0.00 0.00 0.00 78 1009.8
20260902010017 30 261 0.0 8.0 0.00 0.00 0.00 77 1009.7
20260902004513 30 249 0.0 0.0 0.00 0.00 0.00 77 1009.6
20260902003013 30 219 0.0 6.4 0.00 0.00 0.00 76 1009.1
20260902001511 30 247 0.0 3.2 0.00 0.00 0.00 76 1009.0
20260902000010 30 246 0.0 3.2 0.00 0.00 0.00 75 1008.9
20260901234525 30 360 0.0 1.6 0.00 0.00 0.00 73 1008.8
20260901233011 30 215 0.0 8.0 0.00 0.00 0.00 73 1008.5
20260901231506 30 184 0.0 11.3 0.00 0.00 0.00 72 1008.7
20260901230011 31 179 6.4 12.9 0.00 0.00 0.00 72 1008.8
20260901224504 31 214 6.4 12.9 0.00 0.00 0.00 72 1008.6
20260901223004 31 161 8.0 19.3 0.00 0.00 0.00 71 1008.3
20260901221630 32 163 11.3 14.5 0.00 0.00 0.00 69 1008.5
20260901220105 32 186 12.9 20.9 0.00 0.00 0.00 66 1008.4
20260901214558 32 154 9.7 17.7 0.00 0.00 0.00 65 1008.5
20260901213104 32 140 8.0 22.5 0.00 0.00 0.00 65 1008.7
20260901211553 33 163 8.0 17.7 0.00 0.00 0.00 64 1008.6
20260901210052 33 154 11.3 17.7 0.00 0.00 0.00 63 1008.7
20260901204552 33 151 14.5 25.7 0.00 0.00 0.00 64 1009.0
20260901203100 33 144 12.9 20.9 0.00 0.00 0.00 63 1009.1
20260901201548 34 171 9.7 25.7 0.00 0.00 0.00 62 1009.2
20260901200041 33 163 12.9 22.5 0.00 0.00 0.00 62 1009.6
20260901194540 34 217 1.6 29.0 0.00 0.00 0.00 61 1009.7
20260901193039 35 158 9.7 22.5 0.00 0.00 0.00 59 1009.9
20260901191512 35 167 9.7 17.7 0.00 0.00 0.00 60 1009.9
20260901190010 34 211 11.3 20.9 0.00 0.00 0.00 59 1010.2
20260901184537 34 88 14.5 22.5 0.00 0.00 0.00 60 1010.4
20260901183036 34 132 14.5 30.6 0.00 0.00 0.00 60 1010.4
20260901181532 35 182 17.7 29.0 0.00 0.00 0.00 58 1010.6
20260901180031 35 132 6.4 22.5 0.00 0.00 0.00 59 1010.6
20260901174532 34 146 17.7 30.6 0.00 0.00 0.00 58 1010.8
20260901173028 35 170 14.5 25.7 0.00 0.00 0.00 57 1011.0
20260901171525 34 132 16.1 29.0 0.00 0.00 0.00 57 1011.1
20260901170024 34 163 14.5 29.0 0.00 0.00 0.00 57 1011.3
20260901164524 34 111 9.7 19.3 0.00 0.00 0.00 56 1011.4
20260901163017 33 77 4.8 19.3 0.00 0.00 0.00 59 1011.6
20260901161523 32 141 3.2 22.5 0.00 0.00 0.00 61 1011.6
20260901160020 32 156 6.4 17.7 0.00 0.00 0.00 62 1011.8
20260901154512 33 153 3.2 20.9 0.00 0.00 0.00 61 1011.9
20260901153008 32 125 0.0 12.9 0.00 0.00 0.00 61 1012.0
20260901151608 33 130 0.0 11.3 0.00 0.00 0.00 60 1012.0
20260901150036 32 221 0.0 0.0 0.00 0.00 0.00 61 1011.8
20260901144531 32 146 0.0 0.0 0.00 0.00 0.00 63 1011.8
20260901143028 31 219 0.0 6.4 0.00 0.00 0.00 64 1011.7
20260901141520 30 15 0.0 0.0 0.00 0.00 0.00 68 1011.5
20260901140016 28 306 0.0 0.0 0.00 0.00 0.00 73 1011.4
20260901134528 28 306 0.0 0.0 0.00 0.00 0.00 76 1011.2